Weather Roundup
Issued by NWS Chicago, IL

Home | Current Version | Previous Version | Text Only | Print | Product List | Glossary On
Versions: 1 2 3 4 5 6 7 8 9 10 11 12 13 14 15 16 17 18 19 20 21 22 23 24 25 26 27 28 29 30 31 32 33 34 35 36 37 38 39 40 41 42 43 44 45 46 47 48 49 50
000
NZUS59 KLOT 311009
HRRLOT

CHICAGO AREA WEATHER ROUNDUP
NATIONAL WEATHER SERVICE CHICAGO/ROMEOVILLE IL
500 AM CDT SUN JUL 31 2016

NOTE: "FAIR" INDICATES FEW OR NO CLOUDS BELOW 12,000 FEET WITH NO
SIGNIFICANT WEATHER AND/OR OBSTRUCTIONS TO VISIBILITY.

* THESE STATIONS ARE NOT UNDER NWS QUALITY CONTROL. THEY ALSO MAY NOT
  REPORT WEATHER SUCH AS PRECIPITATION OR FOG.

ILZ005-006-012>014-019>023-311100-
NORTHEAST ILLINOIS

CITY           SKY/WX    TMP DP  RH WIND       PRES   REMARKS
OHARE          CLEAR     65  63  93 N6        30.00R
MIDWAY         PTCLDY    68  64  87 N5        30.00R
AURORA         CLEAR     61  60  97 CALM      30.02R FOG
LANSING*       PTCLDY    65  64  93 CALM      30.00S
JOLIET*        CLEAR     64  64  97 CALM      30.01R FOG
WAUKEGAN       CLEAR     63  62  97 NW6       30.01R
DUPAGE AIRPORT CLEAR     63  60  90 N3        30.01R
WHEELING       CLEAR     64  62  93 NW5       30.02R
KANKAKEE*      MOCLDY    64  62  94 CALM      30.01R FOG
MORRIS*        CLEAR     64  62  94 CALM      30.00R
LEWIS AIRPORT* CLEAR     64  61  91 N3        30.01S
NORTHERLY ISL    N/A     69  64  84 NW5         N/A
$$

WIZ051-052-058>065-066-070>072-311100-
SOUTHEAST WISCONSIN

CITY           SKY/WX    TMP DP  RH WIND       PRES   REMARKS
MILWAUKEE      MOCLDY    67  62  84 NW6       30.02S
KENOSHA*       CLEAR     64  62  93 NW5       30.02S
RACINE*        PTCLDY    65  63  93 NW3       30.04R
BURLINGTON       N/A     57  57  99 CALM      30.03R FOG
WAUKESHA       CLEAR     59  57  94 CALM      30.05S
WEST BEND      MOCLDY    57  55  94 CALM      30.05S
$$

INZ001>003-010>013-019-020-311100-
NORTHWEST INDIANA

CITY           SKY/WX    TMP DP  RH WIND       PRES   REMARKS
GARY*          PTCLDY    64  64 100 CALM      30.00R
MICHIGAN CITY* NOT AVBL
RENSSELAER*    NOT AVBL
VALPARAISO     CLOUDY    65  63  93 N3        30.01R
$$

LMZ740>746-311100-
SOUTHERN LAKE MICHIGAN

STATION/POSITION TIME  SKY/WX   TEMP WIND        PRES    VSBY
                                AIR  DIR/SP/G
                 (UTC)          (F)  (DEG/KT/KT) (MB)    (MI)
HARRISON CRIB    0900            72  360/  7/  8   N/A
BURNHAM HARBOR   1000            69  360/  5       N/A
CALUMET HARBOR   0900            70  360/  3/  5 1015.0R
BURNS HARBOR     0903            66   80/  6/  7 1015.9R
MICHIGAN CITY    0900            64   30/  7/  7   N/A
$$

ABBREVIATIONS USED IN REMARKS
   TC - TEMPERATURE IN CELSIUS
  WCI - WIND CHILL INDEX
   HX - HEAT INDEX
  VSB - VISIBILITY
$$



USA.gov is the U.S. government's official web portal to all federal, state and local government web resources and services.